Weather Roundup
Issued by NWS Chicago, IL

Home | Current Version | Previous Version | Graphics & Text | Print | Product List | Glossary On
Versions: 1 2 3 4 5 6 7 8 9 10 11 12 13 14 15 16 17 18 19 20 21 22 23 24 25 26 27 28 29 30 31 32 33 34 35 36 37 38 39 40 41 42 43 44 45 46 47 48 49 50
000
NZUS59 KLOT 201310
HRRLOT

CHICAGO AREA WEATHER ROUNDUP
NATIONAL WEATHER SERVICE CHICAGO/ROMEOVILLE IL
800 AM CDT WED AUG 20 2014

NOTE: "FAIR" INDICATES FEW OR NO CLOUDS BELOW 12,000 FEET WITH NO
SIGNIFICANT WEATHER AND/OR OBSTRUCTIONS TO VISIBILITY.

* THESE STATIONS ARE NOT UNDER NWS QUALITY CONTROL. THEY ALSO MAY NOT
  REPORT WEATHER SUCH AS PRECIPITATION OR FOG.

ILZ005-006-012>014-019>023-201400-
NORTHEAST ILLINOIS

CITY           SKY/WX    TMP DP  RH WIND       PRES   REMARKS
OHARE          MOSUNNY   71  62  73 NW5       29.86R
MIDWAY         MOSUNNY   73  65  75 SW3       29.86R
AURORA         SUNNY     67  62  84 CALM      29.88R
LANSING*       SUNNY     70  65  84 W6        29.87R
JOLIET*        SUNNY     68  63  85 CALM      29.89R
WAUKEGAN       SUNNY     69  64  84 VRB3      29.84R
DUPAGE AIRPORT SUNNY     69  63  81 CALM      29.86R
WHEELING       SUNNY     71  64  78 W3        29.87R
KANKAKEE*      SUNNY     67  66  97 SW6       29.89R
MORRIS*        SUNNY     67  65  93 CALM      29.88R
LEWIS AIRPORT* SUNNY     67  66  94 CALM      29.87R
NORTHERLY IS     N/A     73  63  70 W6          N/A
$$

WIZ051-052-058>065-066-070>072-201400-
SOUTHEAST WISCONSIN

CITY           SKY/WX    TMP DP  RH WIND       PRES   REMARKS
MILWAUKEE      SUNNY     70  62  76 W6        29.84R
KENOSHA*       SUNNY     68  65  90 W3        29.85R
RACINE*        SUNNY     69  64  84 W5        29.87R
BURLINGTON     MOSUNNY   65  65  99 SW5       29.86R
WEST BEND      SUNNY     66  61  82 NW3       29.84R
$$

INZ001>003-010>013-019-020-201400-
NORTHWEST INDIANA

CITY           SKY/WX    TMP DP  RH WIND       PRES   REMARKS
GARY*          SUNNY     72  66  83 S5        29.86R
MICHIGAN CITY* NOT AVBL
RENSSELAER*    NOT AVBL
VALPARAISO     SUNNY     70  65  84 W6        29.87R
$$

LMZ740>746-201400-
SOUTHERN LAKE MICHIGAN

STATION/POSITION TIME  SKY/WX   TEMP WIND        PRES    VSBY
                                AIR  DIR/SP/G
                 (UTC)          (F)  (DEG/KT/KT) (MB)    (MI)
HARRISON CRIB    1300            71  280/  8/  9   N/A
BURNHAM HARBOR   1300            73  240/  5/  8   N/A
CALUMET HARBOR   1300            71  250/  3/  5 1009.9R
BURNS HARBOR     NOT AVBL
MICHIGAN CITY    1300            70  210/  7/  8   N/A
$$

ABBREVIATIONS USED IN REMARKS
   TC - TEMPERATURE IN CELSIUS
  WCI - WIND CHILL INDEX
   HX - HEAT INDEX
  VSB - VISIBILITY
$$



USA.gov is the U.S. government's official web portal to all federal, state and local government web resources and services.